Vorticity
nan nan nan nan nan nan nan nan nan nan nan nan nan nan nan nan nan nan nan nan nan nan nan nan nan nan nan
nan 9 9 12 11 14 12 8 10 7 4 9 9 11 13 12 13 12 12 12 12 13 11 12 10 9 nan
nan 10 12 12 11 12 10 11 8 10 14 12 10 9 11 12 11 11 11 12 11 11 11 10 9 11 nan
nan 10 10 8 12 7 10 11 9 16 17 15 17 17 17 13 12 11 12 12 12 11 11 11 13 11 nan
nan 9 7 7 9 11 10 11 10 12 15 15 18 18 17 17 12 9 10 12 13 14 14 13 12 10 nan
nan 8 7 11 10 10 9 8 11 14 8 9 12 9 12 15 8 10 11 11 11 12 12 12 12 11 nan
nan 10 9 10 8 10 11 9 10 9 10 10 12 11 11 8 7 10 11 11 12 12 13 13 12 11 nan
nan 6 5 5 8 11 13 13 12 11 11 11 9 11 11 10 15 11 13 13 13 14 15 15 13 13 nan
nan 8 10 11 14 17 12 11 11 10 13 14 10 12 12 13 20 19 20 16 14 13 14 15 15 19 nan
nan 15 18 14 16 17 11 10 9 11 9 9 11 12 14 15 13 19 18 16 17 17 15 14 14 15 nan
nan 13 13 14 17 12 10 9 10 9 5 7 11 12 9 9 11 11 11 17 20 19 20 21 18 4 nan
nan 10 11 11 9 10 11 13 11 8 11 11 10 9 10 11 11 12 10 15 14 14 22 24 23 22 nan
nan 11 11 10 11 12 13 13 13 15 15 13 11 11 13 13 12 7 9 15 17 16 14 16 19 21 nan
nan 11 11 11 12 12 12 13 14 14 14 16 12 13 14 13 10 8 13 14 13 17 19 18 15 12 nan
nan 11 11 11 11 11 11 12 11 10 12 12 13 18 19 12 8 11 14 13 12 16 18 22 21 15 nan
nan 11 11 10 10 11 12 11 10 11 12 10 11 15 18 17 7 8 16 13 11 15 17 14 19 23 nan
nan nan nan nan nan nan nan nan nan nan nan nan nan nan nan nan nan nan nan nan nan nan nan nan nan nan nan
CAPE
0 0 0 0 0 0 0 0 0 42 89 75 77 68 70 82 87 89 100 95 109 110 116 126 130 146 151
0 0 0 0 0 0 9 5 18 25 39 52 54 56 61 62 70 81 86 92 100 116 102 97 103 105 112
0 0 0 0 0 0 0 0 0 0 15 23 38 51 61 67 67 70 71 79 85 94 95 93 90 110 130
0 6 1 0 1 0 0 0 0 0 0 17 48 50 54 62 58 48 49 60 66 68 67 65 65 74 91
1 0 2 0 0 0 0 0 0 0 2 1 10 4 3 13 13 25 29 36 45 44 50 51 67 68 86
7 0 0 0 0 0 0 15 5 0 3 0 1 0 0 0 14 37 42 43 44 61 84 90 81 96 82
0 0 0 0 5 13 1 1 3 3 7 2 0 0 0 0 11 25 39 47 46 54 63 78 70 65 65
0 3 11 3 1 1 6 12 4 0 0 0 0 0 0 0 6 12 23 37 48 51 64 83 80 77 67
54 23 11 18 13 4 0 3 0 1 0 1 0 0 0 0 0 2 15 33 43 59 88 106 98 106 56
0 0 0 0 14 4 4 0 0 0 0 0 0 2 1 0 0 0 0 6 22 28 38 41 42 29 35
0 0 0 0 2 1 3 0 0 0 0 0 0 0 0 2 0 0 0 0 0 2 19 29 27 26 3
3 2 1 0 0 0 1 0 0 0 0 0 0 0 0 0 0 0 0 0 0 1 1 8 22 17 17
4 1 1 0 0 0 0 0 0 0 0 0 0 0 0 0 0 0 0 0 0 1 0 0 0 1 0
1 1 0 0 0 0 0 0 0 0 0 0 0 0 0 0 0 0 0 0 0 0 0 0 1 1 1
0 0 0 0 0 0 0 0 0 0 0 0 0 0 0 0 0 0 0 0 0 0 0 0 0 1 1
0 0 0 0 0 0 0 0 0 0 1 0 0 0 0 0 1 0 0 0 0 0 0 0 0 0 2
0 0 0 0 0 0 0 0 0 0 0 0 0 0 0 0 0 1 0 0 0 0 0 0 0 0 0